Orbital Elements at Epoch 2459000.5 (2020-May-31.0) TDB
Reference: JPL 23 (heliocentric ecliptic J2000)
Element | Value | Uncertainty (1-sigma) | Units |
e | .2960838070185018 | 4.0293e-08 | |
a | 2.396411321539917 | 7.7764e-09 | au |
q | 1.686872734276139 | 9.4514e-08 | au |
i | 8.014736088198147 | 5.1515e-06 | deg |
node | 306.9036371835628 | 2.9613e-05 | deg |
peri | 327.6735899800846 | 3.0663e-05 | deg |
M | 112.6433221342071 | 8.2063e-06 | deg |
tp | 2458576.521903643375 (2019-Apr-03.02190364) | 3.014e-05 | TDB |
period | 1355.003668184911 3.71 | 6.5956e-06 1.806e-08 | d yr |
n | .2656819375863655 | 1.2932e-09 | deg/d |
Q | 3.105949908803695 | 1.0079e-08 | au |
|
| | Orbit Determination Parameters
Additional Information
|